Content
SEND FEEDBACK

Daily
Averages
Monthly
Summary
Bosnia and Herzegovina

ILIDZA, BOSNIA AND HERZEGOVINA


Home > Europe > Bosnia and Herzegovina
Elevation: 1677 feet     Latitude: 43 49N     Longitude: 018 19E

WEATHER
 
SELECT A DAY
Number of Records: 177,649;   Date Range: 2/20/97 - 7/27/14
 
SHARE

PRINT THIS DATA

[ ← Previous Day ]
WEATHER ALMANAC - JUNE 7, 2014
[ Next Day → ]
[ °C ]   °F
Weather ElementAverageHighLow
Temperature67.8 °F80.6 °F (4:30 pm)51.8 °F (5:00 am)
Dewpoint53.6 °F57.2 °F (10:00 am)50 °F (5:00 am)
Humidity63.7 %94 % (2:00 am)39 % (6:30 pm)
Barometer30.13 in30.18 in (7:00 am)30.09 in (1:30 pm)
Wind Speed3.4 mph9.2 mph (6:30 pm)
Weather ElementAverage
Visibility6.1 mi
Wind DirectionESE (125.5 °)

Weather ElementTotal
Precipitation---
Cooling Degree Days1.2 (Base 65)
Growing Degree Days16.2 (Base 50)
Averaged from 40 records on June 7, 2014
WEATHER CONDITIONS BREAKOUT
WIND DIRECTION BREAKOUT
WEATHER BY HOUR - JUNE 7, 2014
[ °C ]   °F
Local TimeTemperatureDewpointHumidityBarometerVisibilityWind DirectionWind SpeedGust SpeedPrecipitationEventsConditions
1:00 AM57.2 °F53.6 °F88 %30.15 in6.2 miVariable1.2 mphScattered Clouds
2:00 AM55.4 °F53.6 °F94 %30.15 in6.2 miCalmScattered Clouds
3:00 AM53.6 °F51.8 °F94 %30.15 in6.2 miVariable1.2 mphScattered Clouds
4:00 AM53.6 °F51.8 °F94 %30.15 in6.2 miVariable2.3 mphScattered Clouds
5:00 AM51.8 °F50.0 °F94 %30.15 in6.2 miVariable1.2 mphPartly Cloudy
5:30 AM51.8 °F50.0 °F94 %30.15 inVariable2.3 mphClear
6:00 AM51.8 °F50.0 °F94 %30.15 inVariable1.2 mphClear
6:30 AM53.6 °F51.8 °F94 %30.15 in5.0 miVariable1.2 mphScattered Clouds
7:00 AM55.4 °F51.8 °F88 %30.18 in5.0 miVariable1.2 mphScattered Clouds
7:30 AM57.2 °F53.6 °F88 %30.18 in5.0 miVariable1.2 mphPartly Cloudy
8:00 AM57.2 °F51.8 °F82 %30.18 in5.0 miVariable1.2 mphPartly Cloudy
8:30 AM59.0 °F53.6 °F82 %30.18 in6.2 miVariable1.2 mphPartly Cloudy
9:00 AM62.6 °F53.6 °F72 %30.15 in6.2 miVariable1.2 mphPartly Cloudy
9:30 AM64.4 °F55.4 °F73 %30.15 in6.2 miVariable1.2 mphPartly Cloudy
10:00 AM69.8 °F57.2 °F64 %30.15 in6.2 miVariable1.2 mphPartly Cloudy
10:30 AM69.8 °F57.2 °F64 %30.15 in6.2 miVariable2.3 mphPartly Cloudy
11:00 AM71.6 °F55.4 °F57 %30.15 in6.2 miVariable2.3 mphScattered Clouds
11:30 AM73.4 °F53.6 °F50 %30.12 in6.2 miWSW (240°)4.6 mphScattered Clouds
12:00 PM73.4 °F53.6 °F50 %30.12 in6.2 miVariable4.6 mphScattered Clouds
12:30 PM75.2 °F53.6 °F47 %30.12 in6.2 miNNW (330°)3.5 mphScattered Clouds
1:00 PM75.2 °F55.4 °F50 %30.12 in6.2 miWNW (290°)5.8 mphScattered Clouds
1:30 PM77.0 °F53.6 °F44 %30.09 in6.2 miNNW (330°)5.8 mphScattered Clouds
2:00 PM77.0 °F53.6 °F44 %30.09 in6.2 miVariable4.6 mphScattered Clouds
2:30 PM78.8 °F55.4 °F44 %30.09 in6.2 miNW (320°)6.9 mphScattered Clouds
3:30 PM78.8 °F53.6 °F42 %30.09 in6.2 miVariable4.6 mphScattered Clouds
4:00 PM77.0 °F55.4 °F47 %30.09 in6.2 miWNW (300°)5.8 mphScattered Clouds
4:30 PM80.6 °F55.4 °F42 %30.09 in6.2 miNNW (330°)5.8 mphScattered Clouds
5:00 PM80.6 °F57.2 °F45 %30.09 in6.2 miWNW (300°)8.1 mphScattered Clouds
5:30 PM78.8 °F53.6 °F42 %30.09 in6.2 miNW (320°)6.9 mphScattered Clouds
6:00 PM78.8 °F55.4 °F44 %30.09 in6.2 miWNW (300°)8.1 mphScattered Clouds
6:30 PM78.8 °F51.8 °F39 %30.09 in6.2 miNNW (330°)9.2 mphScattered Clouds
7:00 PM78.8 °F51.8 °F39 %30.09 in6.2 miNorth (360°)5.8 mphScattered Clouds
7:30 PM77.0 °F50.0 °F39 %30.09 in6.2 miNorth (360°)5.8 mphScattered Clouds
8:00 PM75.2 °F53.6 °F47 %30.09 in6.2 miVariable2.3 mphPartly Cloudy
8:30 PM69.8 °F53.6 °F56 %30.12 inWNW (290°)4.6 mphClear
9:00 PM69.8 °F53.6 °F56 %30.12 inNW (310°)4.6 mphClear
9:30 PM69.8 °F53.6 °F56 %30.15 inNW (310°)3.5 mphClear
10:00 PM66.2 °F53.6 °F64 %30.15 inVariable1.2 mphClear
10:30 PM64.4 °F53.6 °F68 %30.15 inVariable1.2 mphClear
11:00 PM62.6 °F55.4 °F77 %30.18 inCalmClear
Hourly data recorded from LQSA, located miles away from Ilidza, Bosnia and Herzegovina







STORIES FROM OUR PARTNERS